Regional Weather Roundup
Issued by NWS Green Bay, WI

Home | Current Version | Previous Version | Text Only | Print | Product List | Glossary On
Versions: 1 2 3 4 5 6 7 8 9 10 11 12 13 14 15 16 17 18 19 20 21 22 23 24 25 26 27 28 29 30 31 32 33 34 35 36 37 38 39 40 41 42 43 44 45 46 47 48 49 50
000
ASUS43 KGRB 261259
RWRGRB

NORTH-CENTRAL AND NORTHEAST WISCONSIN REGIONAL WEATHER ROUNDUP
NATIONAL WEATHER SERVICE GREEN BAY WI
800 AM CDT SAT JUL 26 2014

WIZ005-009-010>012-018-019-261400-
NORTH CENTRAL WISCONSIN

CITY           SKY/WX    TMP DP  RH WIND       PRES   REMARKS
IRONWOOD       NOT AVBL
MANITOWISH WTR NOT AVBL
ARBOR VITAE    NOT AVBL
EAGLE RIVER    NOT AVBL
LAND O LAKES   NOT AVBL
RHINELANDER    FOG       65  65 100 W7        29.82S VSB 1/2
PHILLIPS       NOT AVBL
ANTIGO         NOT AVBL
TOMAHAWK       NOT AVBL
MERRILL        NOT AVBL
$$

WIZ013-073-261400-
NORTHEAST WISCONSIN

CITY           SKY/WX    TMP DP  RH WIND       PRES   REMARKS
IRON MOUNTAIN  CLOUDY    65  61  87 S3        29.77F
MARINETTE      CLOUDY    66  63  88 SW3       29.79R
$$

WIZ017-030-035>037-045-261400-
CENTRAL WISCONSIN

CITY           SKY/WX    TMP DP  RH WIND       PRES   REMARKS
MEDFORD        NOT AVBL
WAUSAU         CLOUDY    67  65  93 SW8       29.82S FOG
MOSINEE        CLOUDY    64  64 100 SW8       29.84S FOG
MARSHFIELD     CLOUDY    67  66  97 SW7       29.83S FOG
WISC RAPIDS    CLOUDY    69  64  84 W7        29.85R
STEVENS POINT  NOT AVBL
WAUPACA        NOT AVBL
SHAWANO        NOT AVBL
CLINTONVILLE   NOT AVBL
$$

WIZ038-039-048-051-261400-
FOX VALLEY

CITY           SKY/WX    TMP DP  RH WIND       PRES   REMARKS
NWS GREEN BAY  CLOUDY    68  63  84 SW8       29.82S
APPLETON       CLOUDY    66  63  88 SW10      29.85R
OSHKOSH        SUNNY     69  63  81 SW5       29.84R
FOND DU LAC    MOSUNNY   67  61  81 W3        29.85S
$$

WIZ022-050-052-261400-
EAST CENTRAL WISCONSIN

CITY           SKY/WX    TMP DP  RH WIND       PRES   REMARKS
STURGEON BAY   PTSUNNY   66  63  88 SW8       29.81R
MANITOWOC      NOT AVBL
SHEBOYGAN      MOSUNNY   67  62  84 SW3       29.85S
$$

LMZ563-521-522-541>543-261400-
LAKESHORE

STATION/POSITION TIME  TEMP    WIND        PRES    VSBY  WAVE
                       AIR SEA DIR/SP/G                  HT/PER
                 (UTC) (F)     (DEG/KT/KT) (MB)    (MI)  (FT/S)
SHEBOYGAN LKSHOR 1200   66     250/  7/  9 1010.7R
KEWAUNEE LKSHORE 1200   56     180/  8/ 10 1010.5F
TWO RIVERS CG    1200   55                   N/A    3 1/2  1
NORTHPORT PIER   1200   62     150/  4/  6 1008.8S
N MID LAKE BUOY  1200   60 56  210/ 12/ 14 1008.4F         1/ 5
STURGEON BAY CG  1200   52     200/  4     1009.4    5/8   1
CHAMBERS ISLAND  1200   67     200/  3/  7 1009.1R
MENOMINEE LKSHOR 1200   67     260/  2/  8 1009.6R
$$



USA.gov is the U.S. government's official web portal to all federal, state and local government web resources and services.